Location: Chervonnoye
(48.6000°N, 34.4000°E)
Time: 10:57:24
(UTC+00:00)

BUGSAT 1 - Visible Passes

Search period start: 01 December 2021 00:00
Search period end: 11 December 2021 00:00
Orbit: 558 x 601 km, 98.1° (Epoch: 30 November)

Date Brightness Start Highest point End Pass type
(mag) Time Alt. Az. Time Alt. Az. Time Alt. Az.
01 Dec ? 01:49:47 10° NE 01:52:49 19° E 01:55:51 10° SE visible
01 Dec ? 03:24:16 10° N 03:28:20 48° WNW 03:32:24 10° SW visible
02 Dec ? 01:54:22 10° NE 01:57:36 21° E 02:00:49 10° SE visible
02 Dec ? 03:29:02 10° N 03:33:03 44° WNW 03:37:04 10° SW visible
02 Dec ? 14:21:43 10° SSW 14:25:28 36° W 14:29:18 10° NNW visible
03 Dec ? 01:58:57 10° NE 02:02:21 23° E 02:05:44 10° SSE visible
03 Dec ? 03:33:48 10° N 03:37:45 40° WNW 03:41:42 10° SW visible
03 Dec ? 14:26:33 10° SSW 14:30:13 32° W 14:33:58 10° NNW visible
04 Dec ? 02:03:34 10° NE 02:07:07 25° E 02:10:38 10° SSE visible
04 Dec ? 03:38:34 10° N 03:42:27 36° WNW 03:46:20 10° SW visible
04 Dec ? 14:31:23 10° SSW 14:34:58 29° W 14:38:37 10° NW visible
05 Dec ? 02:08:12 10° NE 02:11:53 28° E 02:15:31 10° SSE visible
05 Dec ? 03:43:21 10° N 03:47:09 33° WNW 03:50:56 10° SW visible
05 Dec ? 14:36:15 10° SSW 14:39:43 27° W 14:43:15 10° NW visible
06 Dec ? 02:12:50 10° NNE 02:16:38 31° E 02:20:23 10° SSE visible
06 Dec ? 03:48:08 10° N 03:51:50 30° WNW 03:55:32 10° SW visible
06 Dec ? 14:41:07 10° SSW 14:44:28 24° W 14:47:52 10° NW visible
07 Dec ? 02:17:29 10° NNE 02:21:22 34° E 02:25:14 10° SSE visible
07 Dec ? 03:52:55 10° N 03:56:31 27° WNW 04:00:06 10° WSW visible
07 Dec ? 14:46:00 10° SW 14:49:13 22° W 14:52:29 10° NW visible
08 Dec ? 02:22:08 10° NNE 02:26:06 38° E 02:30:03 10° SSE visible
08 Dec ? 03:57:43 10° N 04:01:12 25° WNW 04:04:40 10° WSW visible
08 Dec ? 14:50:55 10° SW 14:53:57 20° W 14:57:04 10° NW visible
09 Dec ? 02:26:48 10° NNE 02:30:50 42° E 02:34:52 10° S visible
09 Dec ? 04:02:31 10° N 04:05:53 23° WNW 04:09:13 10° WSW visible
09 Dec ? 14:55:51 10° SW 14:58:43 18° W 15:01:37 10° NW visible
10 Dec ? 02:31:27 10° NNE 02:35:34 47° E 02:39:39 10° S visible
10 Dec ? 04:07:20 10° NNW 04:10:32 21° WNW 04:13:44 10° WSW visible
10 Dec ? 15:00:49 10° SW 15:03:28 16° W 15:06:09 10° NW visible
